Вернуться в каталог

STARLINK-34782

АктивенСвязьVLEO
NORAD 65358·PAYLOAD·🇺🇸 United States

Запущен Aug 28, 2025 с Cape Canaveral Space Force Station

Loading…

Ближайшие Пролёты (ближайшие 24 часа)

TLE

СвежийSource: CelesTrak SupGP

Эпоха: Sep 14, 2026, 20:47 UTC

1 65358C 25190H   26257.86645833  .00017835  00000+0  52700-3 0  2576
2 65358  53.1587   7.7619 0001120  80.6346 264.8784 15.34378383    14

Отслеживайте STARLINK-34782 в реальном времени с AllMySat

Download on the App Store